NIEUW!!! Volg onze weer- en natuurfoto's op Instagram @ weerstationmaaseik.be

WS Maaseik 1 Meer informatie WS Maaseik 1


WS Maaseik 2 Meer informatie WS Maaseik 2


waarschuwing voor Regen Meer informatie rain snow radar


Bezoek onze andere website:

Vorige versie
weerstation Maaseik


Bezoek ook eens deze sites:

Weerstation Geleen



Regen van: 25-09-2020 20:59 tot: 26-09-2020 23:59 waarschuwing voor: Regen niveau: Geel info button

15 daagse weersverwachting Antwerpen (BE)

  • Overzicht
  • Per uur
  • 15 dagen
  • Extra
  • Vergelijk
  • Kaarten
  • Dagkaart
  • Meer »
  • Info
  • Statistieken
  • Directe link
    Temp 6h Neerslag Wind  
 07:38     19:30    Daglengte: 11:52 Morgen
02:00
12°
9.4 mm
9
warningclass
08:00
12°
12.4 mm
5
14:00
15°
17.7 mm
5
20:00
13°
8.5 mm
4
 07:39     19:28    Daglengte: 11:49 Zondag 27 Sep
02:00
13°
28.6 mm
6
08:00
14°
38.5 mm
5
14:00
17°
23.9 mm
4
20:00
15°
 
2
 07:41     19:25    Daglengte: 11:44 Maandag 28 Sep
02:00
14°
 
2
08:00
14°
14.9 mm
4
14:00
17°
26.7 mm
5
Locatie info
Region: Flandern
Latitude: 51.2221°N
Longitude: 4.3977°E
10 masl
Postcode: 2000
Temp/Neerslag /Baro Onweer/Dauwpunt
    Temp Baro 1h Neerslag Dauwpunt Wind UV Bewolking  
 07:36     19:32    Daglengte: 11:56 Vandaag
23:00
12°
994.0 hPa 3.7 mm
49%
9.2°
11
Windvlaag: 2.7 m/s
73%
 07:38     19:30    Daglengte: 11:52 Morgen
00:00
12°
994.5 hPa 1.7 mm
82%
9.6°
12
Windvlaag: 1.4 m/s
78%
01:00
12°
994.9 hPa 1.7 mm
82%
9.4°
11
Windvlaag: 0.9 m/s
88%
02:00
12°
995.2 hPa 2.2 mm
82%
9.6°
9
Windvlaag: -0 m/s
80% warningclass
03:00
12°
995.3 hPa 2.4 mm
79%
9.9°
7
Windvlaag: -3 m/s
64%
04:00
12°
996.1 hPa 1.9 mm
72%
9.9°
7
Windvlaag: -1.8 m/s
70%
05:00
12°
996.8 hPa 2.1 mm
73%
9.7°
7
Windvlaag: -1.6 m/s
68%
06:00
12°
997.1 hPa 2.1 mm
81%
9.8°
7
Windvlaag: -0.7 m/s
73%
07:00
12°
997.5 hPa 2.0 mm
82%
9.6°
6
Windvlaag: -1.1 m/s
81%
08:00
12°
998.1 hPa 1.9 mm
82%
9.7°
5
Windvlaag: -0.2 m/s
80%
09:00
12°
998.7 hPa 2.2 mm
82%
9.7°
6
Windvlaag: -1.3 m/s
70%
10:00
12°
999.1 hPa 2.9 mm
82%
9.6°
6
Windvlaag: -1.5 m/s
50%
11:00
13°
999.4 hPa 2.7 mm
82%
10.0°
6
Windvlaag: -1 m/s
39% warningclass
12:00
13°
999.4 hPa 3.8 mm
82%
10.7°
5
Windvlaag: -1.5 m/s
39%
13:00
14°
999.4 hPa 2.5 mm
77%
10.6°
5
Windvlaag: -2.1 m/s
17%
14:00
15°
999.6 hPa 3.6 mm
66%
9.8°
5
Windvlaag: -2.2 m/s
28%
15:00
15°
1000.1 hPa 3.9 mm
33%
9.9°
5
Windvlaag: -1.9 m/s
47%
16:00
15°
1000.3 hPa
22%
8.7°
5
Windvlaag: -1.5 m/s
79%
17:00
15°
1000.5 hPa
17%
9.7°
4
Windvlaag: -1.1 m/s
87%
18:00
14°
1000.6 hPa
55%
10.3°
4
Windvlaag: 0.6 m/s
91%
19:00
13°
1001.1 hPa
76%
10.9°
3
Windvlaag: 1.4 m/s
91%
20:00
13°
1001.4 hPa 4.6 mm
82%
10.8°
4
Windvlaag: 1.7 m/s
91%
21:00
13°
1001.5 hPa 4.9 mm
82%
10.3°
4
Windvlaag: 1.1 m/s
91%
22:00
13°
1001.4 hPa 4.2 mm
82%
10.5°
5
Windvlaag: 0.3 m/s
91%
23:00
13°
1001.1 hPa 4.4 mm
82%
10.7°
5
Windvlaag: 0.2 m/s
91%
 07:39     19:28    Daglengte: 11:49 Zondag 27 Sep
00:00
13°
1000.8 hPa 4.5 mm
82%
11.1°
6
Windvlaag: 0.4 m/s
91%
01:00
13°
1000.4 hPa 5.1 mm
82%
11.2°
6
Windvlaag: 0.4 m/s
91%
02:00
13°
999.8 hPa 5.6 mm
82%
11.3°
6
Windvlaag: -1 m/s
91%
03:00
13°
999.4 hPa 6.2 mm
82%
11.6°
6
Windvlaag: -2 m/s
90%
04:00
13°
998.8 hPa 6.0 mm
82%
11.8°
6
Windvlaag: -2.1 m/s
86%
05:00
14°
998.4 hPa 7.9 mm
69%
12.1°
7
Windvlaag: -2.7 m/s
85%
06:00
14°
998.4 hPa 7.7 mm
33%
12.4°
7
Windvlaag: -3.6 m/s
79%
07:00
14°
998.7 hPa 5.5 mm
81%
12.4°
6
Windvlaag: -3.3 m/s
79%
08:00
14°
998.9 hPa 5.2 mm
82%
12.5°
5
Windvlaag: -1.4 m/s
85%
09:00
14°
999.0 hPa 5.3 mm
82%
12.5°
5
Windvlaag: -1 m/s
85%
10:00
15°
999.3 hPa 5.0 mm
79%
12.7°
5
Windvlaag: 0.2 m/s
85%
11:00
15°
999.8 hPa 6.8 mm
22%
12.8°
5
Windvlaag: 0.9 m/s
90%
12:00
16°
1000.3 hPa 6.8 mm
15%
12.7°
5
Windvlaag: 0.6 m/s
74%
13:00
16°
1000.8 hPa
14%
11.5°
5
Windvlaag: 0.5 m/s
73%
14:00
17°
1001.4 hPa
15%
11.1°
4
Windvlaag: 0.2 m/s
80%
15:00
18°
1001.8 hPa
14%
11.2°
3
Windvlaag: -0.2 m/s
72%
16:00
18°
1002.1 hPa
14%
11.0°
3
Windvlaag: -0.1 m/s
72%
17:00
18°
1002.7 hPa
21%
10.8°
3
Windvlaag: -1 m/s
75%
18:00
17°
1003.3 hPa
21%
11.8°
3
Windvlaag: -0.6 m/s
69%
19:00
16°
1004.0 hPa
21%
12.6°
2
Windvlaag: -0.2 m/s
60%
20:00
15°
1004.8 hPa
21%
13.3°
2
Windvlaag: 0.1 m/s
81%
21:00
15°
1005.4 hPa
21%
13.3°
2
Windvlaag: 0.3 m/s
77%
22:00
14°
1005.8 hPa
21%
13.1°
2
Windvlaag: 0.4 m/s
74%
23:00
14°
1006.2 hPa
21%
12.8°
2
Windvlaag: 0.7 m/s
46%
 07:41     19:25    Daglengte: 11:44 Maandag 28 Sep
00:00
14°
1006.5 hPa
21%
12.6°
2
Windvlaag: 0.7 m/s
66%
01:00
13°
1006.7 hPa
21%
12.4°
2
Windvlaag: 0.8 m/s
95%
02:00
14°
1006.5 hPa
21%
12.4°
2
Windvlaag: 1.2 m/s
95%
03:00
14°
1006.3 hPa
21%
12.7°
2
Windvlaag: 1.3 m/s
93%
04:00
14°
1006.1 hPa
85%
12.8°
3
Windvlaag: 1.3 m/s
90%
05:00
14°
1006.0 hPa 7.6 mm
100%
13.1°
2
Windvlaag: 1.3 m/s
98%
06:00
14°
1005.8 hPa
97%
13.8°
3
Windvlaag: 1.3 m/s
90%
07:00
15°
1006.0 hPa 7.3 mm
100%
13.6°
4
Windvlaag: 1.6 m/s
80%
08:00
14°
1006.3 hPa
100%
13.8°
4
Windvlaag: 1.5 m/s
98%
09:00
15°
1006.6 hPa 12.2 mm
100%
13.8°
4
Windvlaag: 3.2 m/s
94%
10:00
15°
1007.0 hPa 14.5 mm
100%
13.8°
4
Windvlaag: 3.2 m/s
92%
11:00
16°
1007.4 hPa
87%
14.1°
4
Windvlaag: 3.4 m/s
91%
12:00
16°
1007.7 hPa
34%
14.3°
5
Windvlaag: 4 m/s
89%
13:00
17°
1008.0 hPa
39%
14.4°
5
Windvlaag: 3.8 m/s
74%
14:00
17°
1008.3 hPa
46%
14.8°
5
Windvlaag: 1.8 m/s
68%
15:00
17°
1007.9 hPa
36%
15.2°
5
Windvlaag: 10.5 m/s
73%
16:00
17°
1008.2 hPa
32%
14.9°
5
Windvlaag: 9.8 m/s
85%
17:00
17°
1008.3 hPa
93%
14.7°
5
Windvlaag: 9.6 m/s
84%
18:00
16°
1008.7 hPa
40%
14.4°
5
Windvlaag: 9.4 m/s
90%
19:00
16°
1009.0 hPa
74%
14.1°
5
Windvlaag: 9.8 m/s
93%
20:00
15°
1009.5 hPa
97%
13.8°
5
Windvlaag: 1.1 m/s
100%
21:00
16°
1010.2 hPa 39.1 mm
100%
14.1°
5
Windvlaag: 10.3 m/s
100%
22:00
15°
1010.6 hPa 39.6 mm
100%
13.8°
5
Windvlaag: 10.9 m/s
100%
Temp/Neerslag /Baro Onweer/Dauwpunt
    Temp Baro Neerslag Dauwpunt Wind Bewolking  
 07:36     19:32    Daglengte: 11:56 Vandaag
23:00
12°
994.0 hPa 3.7 mm 9.2°
11
73%
 07:38     19:30    Daglengte: 11:52 Morgen
02:00
12°
995.2 hPa 5.7 mm 9.6°
9
80% warningclass
05:00
12°
996.8 hPa 6.4 mm 9.7°
7
68%
08:00
12°
998.1 hPa 6.0 mm 9.7°
5
80%
11:00
13°
999.4 hPa 7.8 mm 10.0°
6
39% warningclass
14:00
15°
999.6 hPa 9.9 mm 9.8°
5
28%
17:00
15°
1000.5 hPa 3.9 mm 9.7°
4
87%
20:00
13°
1001.4 hPa 4.6 mm 10.8°
4
91%
23:00
13°
1001.1 hPa 13.4 mm 10.7°
5
91%
 07:39     19:28    Daglengte: 11:49 Zondag 27 Sep
02:00
13°
999.8 hPa 15.2 mm 11.3°
6
91%
05:00
14°
998.4 hPa 20.0 mm 12.1°
7
85%
08:00
14°
998.9 hPa 18.4 mm 12.5°
5
85%
11:00
15°
999.8 hPa 17.1 mm 12.8°
5
90%
14:00
17°
1001.4 hPa 6.8 mm 11.1°
4
80%
17:00
18°
1002.7 hPa   10.8°
3
75%
20:00
15°
1004.8 hPa   13.3°
2
81%
23:00
14°
1006.2 hPa   12.8°
2
46%
 07:41     19:25    Daglengte: 11:44 Maandag 28 Sep
02:00
14°
1006.5 hPa   12.4°
2
95%
05:00
14°
1006.0 hPa 7.6 mm 13.1°
2
98%
08:00
14°
1006.3 hPa 7.3 mm 13.8°
4
98%
11:00
16°
1007.4 hPa 26.7 mm 14.1°
4
91%
14:00
17°
1008.3 hPa   14.8°
5
68%
17:00
17°
1008.3 hPa   14.7°
5
84%
20:00
15°
1009.5 hPa   13.8°
5
100%
23:00
15°
1010.9 hPa 118.5 mm 13.3°
5
100%
 07:42     19:23    Daglengte: 11:41 Dinsdag 29 Sep
02:00
14°
1012.0 hPa 119.5 mm 12.0°
4
86%
05:00
12°
1013.5 hPa 41.5 mm 9.7°
3
41%
08:00
10°
1014.0 hPa 41.6 mm 8.7°
3
20%
11:00
14°
1014.8 hPa 42.1 mm 10.8°
4
47%
14:00
18°
1015.4 hPa 21.9 mm 12.3°
4
70%
17:00
17°
1015.4 hPa 21.8 mm 12.8°
3
65%
20:00
15°
1015.5 hPa 21.6 mm 12.9°
2
64%
23:00
14°
1015.1 hPa 42.9 mm 12.4°
1
75%
 07:44     19:21    Daglengte: 11:37 Woensdag 30 Sep
02:00
14°
1014.6 hPa 42.9 mm 11.9°
2
85%
05:00
12°
1013.7 hPa 42.9 mm 10.9°
3
56%
08:00
11°
1012.9 hPa 21.6 mm 9.9°
3
26%
11:00
14°
1012.3 hPa 42.9 mm 9.7°
4
27%
14:00
16°
1011.5 hPa 42.9 mm 8.6°
5
29%
17:00
16°
1010.2 hPa 42.9 mm 8.0°
4
60%
20:00
15°
1009.2 hPa 42.9 mm 7.4°
3
90%
23:00
14°
1007.2 hPa 42.9 mm 7.7°
4
91%
 07:46     19:19    Daglengte: 11:33 Donderdag 01 Okt
02:00
14°
1005.1 hPa 42.9 mm 8.0°
5
91%
05:00
13°
1002.9 hPa 42.9 mm 9.6°
5
91%
08:00
12°
1000.7 hPa 22.0 mm 10.9°
5
93%
11:00
13°
999.6 hPa 22.3 mm 10.4°
5
89%
14:00
13°
998.3 hPa 22.5 mm 9.9°
5
86%
17:00
12°
999.8 hPa 23.2 mm 9.5°
5
89%
20:00
11°
1001.3 hPa 22.5 mm 9.1°
5
92%
23:00
11°
1003.6 hPa 21.9 mm 8.2°
5
70%
 07:47     19:16    Daglengte: 11:29 Vrijdag 02 Okt
02:00
10°
1006.1 hPa 43.6 mm 6.9°
5
44%
05:00
Voelt als: 6.5°
1007.5 hPa 43.9 mm 6.1°
5
31%
08:00
Voelt als: 5.1°
1008.9 hPa 43.9 mm 5.3°
5
17%
11:00
11°
1010.1 hPa 43.9 mm 5.8°
5
42%
14:00
14°
1011.2 hPa 43.9 mm 5.4°
6
67%
17:00
13°
1011.6 hPa 43.9 mm 6.4°
4
79%
20:00
11°
1011.9 hPa 88.3 mm 7.2°
2
92%
 07:49     19:14    Daglengte: 11:25 Zaterdag 03 Okt
02:00
10°
1010.0 hPa 90.9 mm 9.3°
3
92%
08:00
10°
Voelt als: 9.0°
1009.1 hPa 91.4 mm 9.1°
2
17%
14:00
15°
1009.5 hPa 97.2 mm 12.3°
3
92%
20:00
15°
1009.0 hPa 103.5 mm 13.1°
2
87%
 07:50     19:12    Daglengte: 11:22 Zondag 04 Okt
02:00
14°
1007.7 hPa 114.2 mm 11.6°
4
92%
08:00
13°
1004.8 hPa 123.4 mm 10.7°
4
90%
14:00
16°
1002.4 hPa 125.4 mm 12.2°
4
92%
20:00
12°
1001.7 hPa 125.8 mm 10.6°
7
92%
 07:52     19:10    Daglengte: 11:18 Maandag 05 Okt
02:00
11°
1001.6 hPa 125.8 mm 8.5°
2
1%
08:00
Voelt als: 8.6°
1001.5 hPa 125.8 mm 7.8°
2
0%
14:00
17°
1000.9 hPa 125.8 mm 6.9°
2
0%
20:00
15°
1011.4 hPa 0.6 mm 10.9°
1
41%
 07:54     19:07    Daglengte: 11:13 Dinsdag 06 Okt
02:00
13°
1011.6 hPa 0.5 mm 10.0°
2
49%
08:00
12°
1010.5 hPa 0.6 mm 9.7°
2
45%
14:00
18°
1010.2 hPa 0.8 mm 11.4°
2
52%
20:00
14°
1010.0 hPa 0.4 mm 10.3°
1
45%
 07:55     19:05    Daglengte: 11:10 Woensdag 07 Okt
02:00
12°
1010.1 hPa 1.1 mm 9.8°
2
47%
08:00
11°
1010.4 hPa 0.4 mm 9.2°
2
50%
14:00
17°
1011.5 hPa 0.4 mm 9.2°
3
51%
20:00
13°
1011.9 hPa 0.3 mm 8.7°
1
61%
 07:57     19:03    Daglengte: 11:06 Donderdag 08 Okt
02:00
11°
1012.6 hPa 0.4 mm 8.2°
2
56%
08:00
Voelt als: 8.8°
1013.2 hPa 0.3 mm 7.3°
2
42%
14:00
15°
1014.0 hPa 0.6 mm 8.2°
2
44%
20:00
12°
1014.5 hPa 1.0 mm 7.8°
1
51%
 07:59     19:01    Daglengte: 11:02 Vrijdag 09 Okt
02:00
10°
1015.1 hPa 0.4 mm 7.3°
2
47%
08:00
10°
Voelt als: 8.4°
1015.1 hPa 0.4 mm 7.5°
2
48%
  CAPE Lifted Index Hail Supercell Tornado SRH 3km CL BTM PRES CL TOP PRES Swiss DWD icon SMHI TS
 07:36     19:32    Daglengte: 11:56 Vandaag
23:00 55 J/kg 0.6 K 0 % 0 % 0 % 0 m²/s² 0 0 1.08 80
 07:38     19:30    Daglengte: 11:52 Morgen
00:00 171 J/kg -0.9 K 0 % 0 % 0 % 0 m²/s² 0 0 -0.45 80
01:00 35 J/kg -1.8 K 0 % 0 % 0 % 0 m²/s² 0 0 -0.33 80
02:00 616 J/kg -2.8 K 0 % 0 % 0 % 0 m²/s² 0 0 -2.02 80
03:00 272 J/kg -1.4 K 0 % 0 % 0 % 0 m²/s² 0 0 -0.08 80
04:00 257 J/kg -1.1 K 0 % 0 % 0 % 0 m²/s² 0 0 0.07 3
05:00 132 J/kg -0.5 K 0 % 0 % 0 % 0 m²/s² 0 0 0.07 80
06:00 219 J/kg -1.0 K 0 % 0 % 0 % 0 m²/s² 0 0 -0.52 80
07:00 174 J/kg -1.0 K 0 % 0 % 0 % 0 m²/s² 0 0 -0.16 80
08:00 78 J/kg 0.5 K 0 % 0 % 0 % 0 m²/s² 0 0 1.76 80
09:00 0 J/kg 1.6 K 0 % 0 % 0 % 0 m²/s² 0 0 2.86 80
10:00 0 J/kg 0.9 K 0 % 0 % 0 % 0 m²/s² 0 0 2.16 80
11:00 0 J/kg 2.1 K 0 % 0 % 0 % 0 m²/s² 0 0 2.67 95
12:00 0 J/kg 1.5 K 0 % 0 % 0 % 0 m²/s² 0 0 2.19 80
13:00 18 J/kg 2.3 K 0 % 0 % 0 % 0 m²/s² 0 0 5.93 2
14:00 121 J/kg 3.0 K 0 % 0 % 0 % 0 m²/s² 0 0 6.54 2
15:00 222 J/kg 2.4 K 0 % 0 % 0 % 0 m²/s² 0 0 6.24 2
16:00 80 J/kg 3.7 K 0 % 0 % 0 % 0 m²/s² 0 0 7.96 2
17:00 260 J/kg 1.9 K 0 % 0 % 0 % 0 m²/s² 0 0 4.72 3
18:00 165 J/kg 2.0 K 0 % 0 % 0 % 0 m²/s² 0 0 2.09 3
19:00 94 J/kg 4.1 K 0 % 0 % 0 % 0 m²/s² 0 0 4.34 61
20:00 61 J/kg 5.5 K 0 % 0 % 0 % 0 m²/s² 0 0 5.74 61
21:00 46 J/kg 6.3 K 0 % 0 % 0 % 0 m²/s² 0 0 6.51 61
22:00 46 J/kg 7.0 K 0 % 0 % 0 % 0 m²/s² 0 0 7.18 61
23:00 15 J/kg 7.4 K 0 % 0 % 0 % 0 m²/s² 0 0 7.52 61
 07:39     19:28    Daglengte: 11:49 Zondag 27 Sep
00:00 14 J/kg 6.1 K 0 % 0 % 0 % 0 m²/s² 0 0 6.31 61
01:00 30 J/kg 4.9 K 0 % 0 % 0 % 0 m²/s² 0 0 5.02 61
02:00 2 J/kg 1.2 K 0 % 0 % 0 % 0 m²/s² 0 0 1.41 61
03:00 0 J/kg -0.5 K 0 % 0 % 0 % 0 m²/s² 0 0 1.06 61
04:00 107 J/kg -0.6 K 0 % 0 % 0 % 0 m²/s² 0 0 3.18 61
05:00 194 J/kg -1.1 K 0 % 0 % 0 % 0 m²/s² 0 0 5.5 3
06:00 196 J/kg -0.8 K 0 % 0 % 0 % 0 m²/s² 0 0 4.63 3
07:00 59 J/kg 1.3 K 0 % 0 % 0 % 0 m²/s² 0 0 6.58 3
08:00 39 J/kg 3.5 K 0 % 0 % 0 % 0 m²/s² 0 0 9.41 80
09:00 23 J/kg 6.0 K 0 % 0 % 0 % 0 m²/s² 0 0 12.09 80
10:00 0 J/kg 8.8 K 0 % 0 % 0 % 0 m²/s² 0 0 14.41 3
11:00 0 J/kg 9.7 K 0 % 0 % 0 % 0 m²/s² 0 0 14.5 3
12:00 0 J/kg 6.0 K 0 % 0 % 0 % 0 m²/s² 0 0 9.72 3
13:00 0 J/kg 5.7 K 0 % 0 % 0 % 0 m²/s² 0 0 7.74 3
14:00 0 J/kg 6.3 K 0 % 0 % 0 % 0 m²/s² 0 0 6.96 3
15:00 0 J/kg 7.3 K 0 % 0 % 0 % 0 m²/s² 0 0 7.51 3
16:00 0 J/kg 7.6 K 0 % 0 % 0 % 0 m²/s² 0 0 7.63 2
17:00 1 J/kg 6.6 K 0 % 0 % 0 % 0 m²/s² 0 0 6.78 3
18:00 78 J/kg 3.9 K 0 % 0 % 0 % 0 m²/s² 0 0 3.99 3
19:00 57 J/kg 3.9 K 0 % 0 % 0 % 0 m²/s² 0 0 4.23 3
20:00 9 J/kg 4.0 K 0 % 0 % 0 % 0 m²/s² 0 0 4.81 3
21:00 1 J/kg 3.2 K 0 % 0 % 0 % 0 m²/s² 0 0 4.1 3
22:00 5 J/kg 3.3 K 0 % 0 % 0 % 0 m²/s² 0 0 4.2 3
23:00 7 J/kg 3.6 K 0 % 0 % 0 % 0 m²/s² 0 0 4.5 2
 07:41     19:25    Daglengte: 11:44 Maandag 28 Sep
00:00 3 J/kg 2.7 K 0 % 0 % 0 % 0 m²/s² 0 0 3.96 3
01:00 1 J/kg 2.3 K 0 % 0 % 0 % 0 m²/s² 0 0 3.53 3
02:00 2 J/kg 2.7 K 0 % 0 % 0 % 0 m²/s² 0 0 3.96 3
03:00 0 J/kg 2.7 K 0 % 0 % 0 % 0 m²/s² 0 0 3.66 3
04:00 1 J/kg 3.0 K 0 % 0 % 0 % 0 m²/s² 0 0 4.92 3
05:00 2 J/kg 2.7 K 0 % 0 % 0 % 0 m²/s² 0 0 5.16 61
06:00 4 J/kg 2.9 K 0 % 0 % 0 % 0 m²/s² 0 0 5.36 3
07:00 5 J/kg 2.9 K 0 % 0 % 0 % 0 m²/s² 0 0 5.42 61
08:00 5 J/kg 2.8 K 0 % 0 % 0 % 0 m²/s² 0 0 5.47 61
09:00 5 J/kg 2.5 K 0 % 0 % 0 % 0 m²/s² 0 0 5.17 61
10:00 5 J/kg 3.3 K 0 % 0 % 0 % 0 m²/s² 0 0 5.4 63
11:00 7 J/kg 4.0 K 0 % 0 % 0 % 0 m²/s² 0 0 6.04 61
12:00 13 J/kg 4.4 K 0 % 0 % 0 % 0 m²/s² 0 0 6.38 3
13:00 15 J/kg 4.3 K 0 % 0 % 0 % 0 m²/s² 0 0 6.34 3
14:00 22 J/kg 3.6 K 0 % 0 % 0 % 0 m²/s² 0 0 5.82 3
15:00 25 J/kg 3.2 K 0 % 0 % 0 % 0 m²/s² 0 0 5.36 3
16:00 29 J/kg 3.1 K 0 % 0 % 0 % 0 m²/s² 0 0 5.2 3
17:00 29 J/kg 3.2 K 0 % 0 % 0 % 0 m²/s² 0 0 5.15 3
18:00 21 J/kg 3.7 K 0 % 0 % 0 % 0 m²/s² 0 0 5.47 3
19:00 14 J/kg 4.0 K 0 % 0 % 0 % 0 m²/s² 0 0 5.47 3
20:00 5 J/kg 4.3 K 0 % 0 % 0 % 0 m²/s² 0 0 5.59 45
21:00 3 J/kg 4.7 K 0 % 0 % 0 % 0 m²/s² 0 0 5.78
22:00 1 J/kg 4.7 K 0 % 0 % 0 % 0 m²/s² 0 0 6.17
Temp Baro Wind Neerslag
  EWN Forecast EWN WRFDA DWD ICON FMI HIRLAM MET Norway GFSWXSIM
 07:36     19:32    Daglengte: 11:56 Vandaag
23:00 11.5° 994.0 hPa 10.5 m/s 3.7 mm 11.7° 992.2 hPa 10.3 m/s 7.9 mm 12.4° 992.3 hPa 8.2 m/s 6.7 mm 12.3° 995.4 hPa 11.8 m/s 0.0 mm 11.0° 994.1 hPa 11.3 m/s 11.6° 995.4 hPa 10.2 m/s 10.4° 996.0 hPa 9.0 m/s 1.5 mm
 07:38     19:30    Daglengte: 11:52 Morgen
02:00 11.8° 995.2 hPa 9.1 m/s 5.7 mm 13.0° 990.9 hPa 7.7 m/s 25.9 mm 12.2° 995.2 hPa 8.1 m/s 3.0 mm 11.9° 995.7 hPa 10.0 m/s 0.0 mm 10.7° 995.6 hPa 9.4 m/s 12.7° 995.3 hPa 9.8 m/s 10.2° 996.0 hPa 7.0 m/s 1.3 mm
05:00 11.7° 996.8 hPa 7.2 m/s 6.4 mm 11.7° 993.3 hPa 7.4 m/s 32.5 mm 12.0° 996.5 hPa 7.0 m/s 1.4 mm 12.6° 996.8 hPa 5.8 m/s 0.0 mm 11.0° 997.3 hPa 7.4 m/s 12.1° 996.7 hPa 9.1 m/s 10.0° 998.0 hPa 6.0 m/s 1.3 mm
08:00 11.6° 998.1 hPa 5.5 m/s 6.0 mm 11.2° 995.1 hPa 6.5 m/s 33.8 mm 11.8° 997.6 hPa 5.4 m/s 1.7 mm 11.8° 998.7 hPa 4.3 m/s 0.0 mm 10.8° 998.7 hPa 6.5 m/s 11.7° 998.1 hPa 5.7 m/s 9.8° 999.0 hPa 5.0 m/s 1.5 mm
11:00 12.5° 999.4 hPa 6.0 m/s 7.8 mm 10.8° 996.8 hPa 3.9 m/s 39.9 mm 13.1° 999.2 hPa 5.2 m/s 1.9 mm 13.1° 999.2 hPa 6.8 m/s 0.0 mm 12.6° 1000.0 hPa 6.3 m/s 13.7° 1000.3 hPa 6.4 m/s 9.9° 1001.0 hPa 6.0 m/s 2.5 mm
14:00 14.9° 999.6 hPa 4.7 m/s 9.9 mm 15.5° 996.7 hPa 3.6 m/s 50.2 mm 15.4° 999.5 hPa 4.0 m/s 1.1 mm 14.3° 997.7 hPa 10.2 m/s 0.0 mm 15.0° 1000.4 hPa 4.1 m/s 15.7° 1000.5 hPa 4.7 m/s 10.8° 1002.0 hPa 4.0 m/s 1.8 mm
17:00 14.8° 1000.5 hPa 4.0 m/s 3.9 mm 15.0° 997.0 hPa 6.0 m/s 50.4 mm 15.9° 1000.3 hPa 3.9 m/s 0.0 mm 15.3° 999.5 hPa 3.6 m/s 0.0 mm 14.6° 1001.4 hPa 4.5 m/s 15.3° 1001.5 hPa 4.7 m/s 11.7° 1002.0 hPa 5.0 m/s 1.8 mm
20:00 12.8° 1001.4 hPa 3.5 m/s 4.6 mm 13.8° 996.8 hPa 7.5 m/s 60.9 mm 13.2° 1001.7 hPa 3.4 m/s 0.6 mm 13.9° 999.5 hPa 4.7 m/s 0.0 mm 12.3° 1002.4 hPa 3.2 m/s 13.1° 1001.9 hPa 4.7 m/s 10.2° 1002.0 hPa 5.0 m/s 3.5 mm
23:00 12.7° 1001.1 hPa 5.3 m/s 13.4 mm 12.8° 995.5 hPa 7.5 m/s 68.4 mm 12.9° 1000.6 hPa 3.3 m/s 3.6 mm 13.8° 999.1 hPa 8.5 m/s 0.0 mm 12.6° 1002.5 hPa 5.3 m/s 12.5° 1002.4 hPa 4.4 m/s 10.0° 1002.0 hPa 5.0 m/s 5.6 mm
 07:39     19:28    Daglengte: 11:49 Zondag 27 Sep
02:00 13.0° 999.8 hPa 6.1 m/s 15.2 mm 13.7° 993.3 hPa 9.0 m/s 87.4 mm 13.4° 998.8 hPa 5.2 m/s 3.5 mm 13.8° 997.2 hPa 9.3 m/s 0.0 mm 12.5° 1001.7 hPa 5.7 m/s 12.8° 1000.6 hPa 6.2 m/s 10.0° 1000.0 hPa 6.0 m/s 1.0 mm
05:00 13.6° 998.4 hPa 6.8 m/s 20.0 mm 15.1° 992.7 hPa 6.7 m/s 99.1 mm 13.9° 998.3 hPa 4.7 m/s 4.3 mm 14.6° 994.1 hPa 10.7 m/s 0.0 mm 12.8° 1000.5 hPa 6.1 m/s 13.9° 999.0 hPa 6.6 m/s 10.0° 999.0 hPa 8.0 m/s 3.3 mm
08:00 14.0° 998.9 hPa 5.0 m/s 18.4 mm 14.6° 995.3 hPa 6.1 m/s 99.9 mm 13.2° 999.5 hPa 1.4 m/s 1.1 mm 16.5° 995.8 hPa 6.5 m/s 0.0 mm 13.7° 999.4 hPa 5.3 m/s 15.0° 998.8 hPa 6.5 m/s 10.3° 999.0 hPa 8.0 m/s 5.4 mm
11:00 14.9° 999.8 hPa 4.8 m/s 17.1 mm 13.5° 998.3 hPa 6.2 m/s 100.0 mm 13.6° 1000.6 hPa 1.7 m/s 1.1 mm 17.2° 997.9 hPa 5.3 m/s 0.0 mm 16.2° 999.7 hPa 6.5 m/s 16.9° 999.8 hPa 5.6 m/s 12.2° 1001.0 hPa 6.0 m/s 0.5 mm
14:00 17.2° 1001.4 hPa 4.4 m/s 6.8 mm 17.0° 1000.7 hPa 5.4 m/s 100.0 mm 14.5° 1002.2 hPa 2.2 m/s 0.0 mm 18.1° 1000.2 hPa 4.5 m/s 0.0 mm 19.6° 1001.1 hPa 6.2 m/s 18.8° 1001.1 hPa 5.7 m/s 14.0° 1003.0 hPa 4.0 m/s 0.2 mm
17:00 17.9° 1002.7 hPa 3.4 m/s 0.0 mm 18.3° 1001.4 hPa 3.6 m/s 100.0 mm 16.3° 1003.5 hPa 1.7 m/s 0.0 mm 19.5° 1002.2 hPa 4.9 m/s 18.6° 1002.4 hPa 4.7 m/s 14.6° 1004.0 hPa 2.0 m/s 0.0 mm
20:00 15.3° 1004.8 hPa 1.9 m/s 0.0 mm 16.0° 1001.2 hPa 4.2 m/s 100.9 mm 14.5° 1005.4 hPa 1.3 m/s 0.0 mm 15.7° 1004.6 hPa 1.8 m/s 15.9° 1004.2 hPa 2.9 m/s 13.6° 1006.0 hPa 1.0 m/s 0.0 mm
23:00 14.1° 1006.2 hPa 2.2 m/s 0.0 mm 16.5° 1001.8 hPa 5.8 m/s 105.8 mm 13.2° 1007.0 hPa 1.2 m/s 0.0 mm 14.4° 1006.1 hPa 2.1 m/s 15.1° 1006.3 hPa 2.8 m/s 12.8° 1007.0 hPa 1.0 m/s 0.3 mm
 07:41     19:25    Daglengte: 11:44 Maandag 28 Sep
02:00 13.7° 1006.5 hPa 2.2 m/s 0.0 mm 15.8° 1001.8 hPa 6.4 m/s 106.9 mm 12.8° 1007.2 hPa 1.3 m/s 0.0 mm 14.1° 1006.5 hPa 2.2 m/s 14.3° 1006.7 hPa 1.9 m/s 12.3° 1007.0 hPa 2.0 m/s 0.0 mm
05:00 13.8° 1006.0 hPa 2.2 m/s 7.6 mm 15.3° 1001.5 hPa 6.2 m/s 107.2 mm 12.8° 1007.1 hPa 1.1 m/s 0.2 mm 14.3° 1005.8 hPa 2.2 m/s 15.5° 1006.9 hPa 2.8 m/s 12.2° 1008.0 hPa 2.0 m/s 0.0 mm
08:00 14.4° 1006.3 hPa 3.7 m/s 7.3 mm 15.0° 1001.8 hPa 6.1 m/s 107.7 mm 12.4° 1007.6 hPa 2.1 m/s 0.3 mm 16.1° 1006.0 hPa 4.2 m/s 16.3° 1007.6 hPa 4.0 m/s 11.9° 1008.0 hPa 3.0 m/s 0.7 mm
11:00 15.6° 1007.4 hPa 4.4 m/s 26.7 mm 16.0° 1002.7 hPa 6.1 m/s 108.6 mm 12.2° 1008.0 hPa 3.6 m/s 3.9 mm 17.8° 1007.1 hPa 4.9 m/s 17.2° 1008.0 hPa 3.8 m/s 12.3° 1009.0 hPa 4.0 m/s 0.8 mm
14:00 17.3° 1008.3 hPa 5.1 m/s 0.0 mm 17.9° 1003.6 hPa 7.4 m/s 109.3 mm 12.7° 1008.1 hPa 3.8 m/s 0.0 mm 19.5° 1008.3 hPa 5.6 m/s 18.4° 1009.2 hPa 6.3 m/s 12.8° 1010.0 hPa 6.0 m/s 0.3 mm
17:00 16.7° 1008.3 hPa 4.9 m/s 0.0 mm 16.6° 1005.3 hPa 5.2 m/s 111.0 mm 13.0° 1007.9 hPa 2.2 m/s 0.0 mm 17.9° 1009.2 hPa 5.5 m/s 16.9° 1010.0 hPa 5.9 m/s 13.2° 1011.0 hPa 5.0 m/s 0.2 mm
20:00 15.4° 1009.5 hPa 4.7 m/s 0.0 mm 15.5° 1007.9 hPa 5.0 m/s 114.7 mm 12.8° 1009.0 hPa 1.5 m/s 0.0 mm 16.2° 1010.1 hPa 5.4 m/s 14.9° 1011.8 hPa 5.1 m/s 12.8° 1013.0 hPa 4.0 m/s 0.0 mm
23:00 15.3° 1010.9 hPa 4.7 m/s 118.5 mm 14.7° 1009.7 hPa 4.5 m/s 118.5 mm 15.3° 1011.2 hPa 4.7 m/s 14.2° 1013.4 hPa 3.8 m/s 11.3° 1014.0 hPa 3.0 m/s 0.0 mm
 07:42     19:23    Daglengte: 11:41 Dinsdag 29 Sep
02:00 14.2° 1012.0 hPa 3.9 m/s 119.5 mm 12.1° 1011.1 hPa 3.1 m/s 119.6 mm 14.5° 1012.2 hPa 4.0 m/s 11.1° 1014.0 hPa 3.0 m/s 10.2° 1015.0 hPa 3.0 m/s 0.0 mm
05:00 11.6° 1013.5 hPa 3.1 m/s 41.5 mm 11.7° 1013.3 hPa 3.2 m/s 11.9° 1014.4 hPa 2.9 m/s 41.5 mm 9.6° 1015.0 hPa 2.0 m/s 0.0 mm
08:00 10.5° 1014.0 hPa 2.8 m/s 41.6 mm 10.3° 1013.8 hPa 2.8 m/s 13.3° 1015.1 hPa 2.9 m/s 41.6 mm 9.5° 1016.0 hPa 2.0 m/s 0.0 mm
11:00 14.2° 1014.8 hPa 3.5 m/s 42.1 mm 14.1° 1014.5 hPa 3.6 m/s 16.5° 1016.0 hPa 2.8 m/s 42.1 mm 12.5° 1017.0 hPa 3.0 m/s 0.0 mm
14:00 17.8° 1015.4 hPa 4.2 m/s 21.9 mm 17.9° 1015.2 hPa 4.4 m/s 19.6° 1016.8 hPa 4.4 m/s 42.5 mm 14.3° 1017.0 hPa 2.0 m/s 1.3 mm
17:00 16.5° 1015.4 hPa 2.9 m/s 21.8 mm 16.6° 1015.2 hPa 2.9 m/s 17.6° 1016.6 hPa 4.4 m/s 42.9 mm 14.3° 1017.0 hPa 2.0 m/s 0.7 mm
20:00 15.0° 1015.5 hPa 1.5 m/s 21.6 mm 15.3° 1015.2 hPa 1.4 m/s 14.0° 1017.4 hPa 2.6 m/s 42.9 mm 12.5° 1017.0 hPa 2.0 m/s 0.3 mm
23:00 14.4° 1015.1 hPa 1.4 m/s 42.9 mm 14.8° 1014.7 hPa 1.4 m/s 12.8° 1017.7 hPa 1.4 m/s 42.9 mm 11.8° 1017.0 hPa 1.0 m/s 0.0 mm
 07:44     19:21    Daglengte: 11:37 Woensdag 30 Sep
02:00 13.9° 1014.6 hPa 1.6 m/s 42.9 mm 14.3° 1014.2 hPa 1.5 m/s 11.8° 1017.5 hPa 1.9 m/s 42.9 mm 11.4° 1017.0 hPa 2.0 m/s 0.0 mm
05:00 12.5° 1013.7 hPa 2.6 m/s 42.9 mm 12.8° 1013.3 hPa 2.6 m/s 10.6° 1016.5 hPa 1.9 m/s 42.9 mm 11.0° 1015.0 hPa 2.0 m/s 0.0 mm
08:00 11.0° 1012.9 hPa 3.5 m/s 21.6 mm 11.2° 1012.4 hPa 3.8 m/s 9.8° 1016.3 hPa 1.4 m/s 42.9 mm 10.4° 1015.0 hPa 2.0 m/s 0.3 mm
11:00 13.8° 1012.3 hPa 4.1 m/s 42.9 mm 13.8° 1011.8 hPa 4.5 m/s 14.7° 1016.0 hPa 1.0 m/s 42.9 mm 12.8° 1015.0 hPa 2.0 m/s 0.0 mm
14:00 16.3° 1011.5 hPa 4.7 m/s 42.9 mm 16.4° 1011.1 hPa 5.2 m/s 17.9° 1014.7 hPa 1.4 m/s 42.9 mm 14.1° 1013.0 hPa 2.0 m/s 0.0 mm
17:00 15.7° 1010.2 hPa 4.0 m/s 42.9 mm 15.6° 1010.0 hPa 4.3 m/s 18.1° 1013.0 hPa 2.1 m/s 42.9 mm 14.0° 1011.0 hPa 2.0 m/s 0.0 mm
20:00 14.7° 1009.2 hPa 3.2 m/s 42.9 mm 14.8° 1008.8 hPa 3.5 m/s 15.2° 1012.1 hPa 1.4 m/s 42.9 mm 12.3° 1011.0 hPa 2.0 m/s 0.0 mm
23:00 14.0° 1007.2 hPa 4.2 m/s 42.9 mm 14.3° 1006.7 hPa 4.5 m/s 13.9° 1011.0 hPa 2.1 m/s 42.9 mm 11.1° 1010.0 hPa 3.0 m/s 0.0 mm
 07:46     19:19    Daglengte: 11:33 Donderdag 01 Okt
02:00 13.6° 1005.1 hPa 5.2 m/s 42.9 mm 13.8° 1004.6 hPa 5.5 m/s 13.6° 1008.6 hPa 3.0 m/s 42.9 mm 10.6° 1007.0 hPa 4.0 m/s 0.0 mm
05:00 12.8° 1002.9 hPa 4.9 m/s 42.9 mm 12.9° 1002.5 hPa 5.0 m/s 13.6° 1006.1 hPa 3.6 m/s 42.9 mm 10.6° 1005.0 hPa 5.0 m/s 0.0 mm
08:00 12.1° 1000.7 hPa 4.6 m/s 22.0 mm 12.0° 1000.3 hPa 4.4 m/s 14.0° 1004.5 hPa 4.1 m/s 43.6 mm 10.7° 1002.0 hPa 7.0 m/s 0.5 mm
11:00 12.6° 999.6 hPa 4.9 m/s 22.3 mm 12.3° 999.0 hPa 4.7 m/s 17.0° 1003.3 hPa 5.7 m/s 43.6 mm 11.7° 1002.0 hPa 7.0 m/s 1.0 mm
14:00 13.1° 998.3 hPa 5.3 m/s 22.5 mm 12.7° 997.8 hPa 5.0 m/s 19.2° 1001.9 hPa 6.8 m/s 43.6 mm 12.4° 1001.0 hPa 7.0 m/s 1.5 mm
17:00 11.9° 999.8 hPa 4.9 m/s 23.2 mm 11.3° 999.6 hPa 4.7 m/s 18.7° 1001.0 hPa 5.2 m/s 43.6 mm 12.6° 1000.0 hPa 7.0 m/s 2.8 mm
20:00 10.7° 1001.3 hPa 4.5 m/s 22.5 mm 9.9° 1001.5 hPa 4.3 m/s 17.8° 1000.6 hPa 5.1 m/s 43.6 mm 13.0° 1000.0 hPa 7.0 m/s 1.5 mm
23:00 10.5° 1003.6 hPa 4.8 m/s 21.9 mm 9.7° 1004.1 hPa 4.5 m/s 17.7° 1000.7 hPa 5.6 m/s 43.6 mm 13.5° 1001.0 hPa 7.0 m/s 0.3 mm
 07:47     19:16    Daglengte: 11:29 Vrijdag 02 Okt
02:00 10.1° 1006.1 hPa 4.8 m/s 43.6 mm 9.5° 1006.7 hPa 4.8 m/s 16.7° 999.7 hPa 5.3 m/s 43.6 mm
05:00 9.1° 1007.5 hPa 4.7 m/s 43.9 mm 8.4° 1008.2 hPa 4.8 m/s 16.4° 1000.3 hPa 3.6 m/s 43.9 mm
08:00 8.0° 1008.9 hPa 4.8 m/s 43.9 mm 7.3° 1009.6 hPa 4.9 m/s 15.3° 1001.0 hPa 3.3 m/s 43.9 mm
11:00 11.2° 1010.1 hPa 5.2 m/s 43.9 mm 10.7° 1010.8 hPa 5.4 m/s 17.7° 1002.9 hPa 3.3 m/s 43.9 mm
14:00 14.5° 1011.2 hPa 5.6 m/s 43.9 mm 14.0° 1011.9 hPa 5.9 m/s 19.6° 1004.0 hPa 2.0 m/s 43.9 mm
17:00 12.9° 1011.6 hPa 4.0 m/s 43.9 mm 12.6° 1012.2 hPa 4.2 m/s 17.0° 1004.4 hPa 2.5 m/s 43.9 mm
20:00 11.4° 1011.9 hPa 2.4 m/s 44.4 mm 11.1° 1012.6 hPa 2.4 m/s 14.5° 1004.6 hPa 2.3 m/s 44.4 mm
 07:49     19:14    Daglengte: 11:25 Zaterdag 03 Okt
02:00 10.4° 1010.0 hPa 2.9 m/s 45.5 mm 10.0° 1010.5 hPa 3.1 m/s 14.5° 1004.2 hPa 1.1 m/s 45.5 mm
08:00 9.7° 1009.1 hPa 1.8 m/s 45.8 mm 9.3° 1009.5 hPa 1.8 m/s 14.2° 1004.3 hPa 1.9 m/s 45.8 mm
14:00 15.2° 1009.5 hPa 3.5 m/s 49.5 mm 15.3° 1010.0 hPa 3.5 m/s 13.9° 1003.8 hPa 3.0 m/s 49.5 mm
20:00 14.7° 1009.0 hPa 1.9 m/s 52.4 mm 14.9° 1009.5 hPa 1.8 m/s 12.5° 1003.3 hPa 2.9 m/s 52.4 mm
 07:50     19:12    Daglengte: 11:22 Zondag 04 Okt
02:00 14.3° 1007.7 hPa 3.7 m/s 59.6 mm 14.5° 1008.1 hPa 3.7 m/s 11.7° 1003.6 hPa 3.2 m/s 59.6 mm
08:00 13.0° 1004.8 hPa 3.7 m/s 61.9 mm 13.2° 1005.0 hPa 3.9 m/s 10.9° 1003.1 hPa 1.7 m/s 61.9 mm
14:00 15.8° 1002.4 hPa 3.9 m/s 62.9 mm 16.0° 1002.4 hPa 4.0 m/s 13.7° 1002.0 hPa 2.4 m/s 62.9 mm
20:00 12.1° 1001.7 hPa 6.7 m/s 62.9 mm 12.0° 1001.8 hPa 7.1 m/s 13.0° 1001.2 hPa 1.8 m/s 62.9 mm
 07:52     19:10    Daglengte: 11:18 Maandag 05 Okt
02:00 10.8° 1001.6 hPa 2.1 m/s 62.9 mm 10.8° 1001.6 hPa 2.1 m/s 62.9 mm
08:00 9.4° 1001.5 hPa 1.9 m/s 62.9 mm 9.4° 1001.5 hPa 1.9 m/s 62.9 mm
14:00 17.1° 1000.9 hPa 2.0 m/s 62.9 mm 17.1° 1000.9 hPa 2.0 m/s 62.9 mm
20:00 15.1° 1011.4 hPa 1.0 m/s 0.6 mm
 07:54     19:07    Daglengte: 11:13 Dinsdag 06 Okt
02:00 12.7° 1011.6 hPa 1.6 m/s 0.5 mm
08:00 11.5° 1010.5 hPa 1.9 m/s 0.6 mm
14:00 17.7° 1010.2 hPa 2.4 m/s 0.8 mm
20:00 14.3° 1010.0 hPa 1.1 m/s 0.4 mm
 07:55     19:05    Daglengte: 11:10 Woensdag 07 Okt
02:00 12.3° 1010.1 hPa 2.2 m/s 1.1 mm
08:00 11.1° 1010.4 hPa 1.9 m/s 0.4 mm
14:00 16.6° 1011.5 hPa 2.6 m/s 0.4 mm
20:00 13.4° 1011.9 hPa 1.5 m/s 0.3 mm
 07:57     19:03    Daglengte: 11:06 Donderdag 08 Okt
02:00 11.0° 1012.6 hPa 2.0 m/s 0.4 mm
08:00 9.4° 1013.2 hPa 1.6 m/s 0.3 mm
14:00 15.1° 1014.0 hPa 2.4 m/s 0.6 mm
20:00 12.1° 1014.5 hPa 1.4 m/s 1.0 mm
 07:59     19:01    Daglengte: 11:02 Vrijdag 09 Okt
02:00 10.3° 1015.1 hPa 2.4 m/s 0.4 mm
08:00 9.6° 1015.1 hPa 2.4 m/s 0.4 mm
FMI Hirlam - 7.5 km EWN WRFDA - 12 km DWD ICON - 7 km GFS - 25 km Basiskaart






























































Updatetijd (Europe/Brussels) Resolutie Lengte Stap
FMI Hirlam 19:00, 01:00, 07:00, 13:00 7.5 km 49h 1h
EWN WRFDA 21:45, 03:45, 09:45, 15:45 12 km 73h 1h
DWD ICON 18:15, 00:15, 06:15, 12:15 7 km 75h 1h
GFS 19:45, 01:45, 07:45, 13:45 25 km 237h 3h
30+ mm
25-30 mm
20-25 mm
15-20 mm
10-15 mm
6-10 mm
4-6 mm
2-4 mm
1-2 mm
0.5-1 mm
0.2-0.5 mm
0.1-0.2 mm
30+ mm
25-30 mm
20-25 mm
15-20 mm
10-15 mm
6-10 mm
4-6 mm
2-4 mm
1-2 mm
0.5-1 mm
0.2-0.5 mm
0.1-0.2 mm
Sneeuwval
Natte sneeuw
Hagel
Vorst
30+ mm
25-30 mm
20-25 mm
15-20 mm
10-15 mm
6-10 mm
4-6 mm
2-4 mm
1-2 mm
0.5-1 mm
0.2-0.5 mm
0.1-0.2 mm
Sneeuwval
Natte sneeuw
Hagel
Vorst
Onweer
50 mm
40 mm
30 mm
26 mm
22 mm
18 mm
14 mm
10 mm
9 mm
8 mm
7 mm
6 mm
5 mm
4.5 mm
4 mm
3.5 mm
3 mm
2.5 mm
2 mm
1.5 mm
1 mm
0.8 mm
0.6 mm
0.4 mm
0.2 mm
0.05 mm
35°
30°
25°
20°
15°
10°
-5°
-10°
-15°
-20°
-25°
-30°
-35°
33> m/s
29 m/s
25 m/s
21 m/s
17 m/s
14 m/s
11 m/s
8 m/s
5 m/s
3 m/s
0 m/s
2600 J/kg
2400 J/kg
2200 J/kg
2000 J/kg
1800 J/kg
1600 J/kg
1400 J/kg
1200 J/kg
1000 J/kg
800 J/kg
600 J/kg
400 J/kg
200 J/kg
70 dBZ
65 dBZ
60 dBZ
55 dBZ
50 dBZ
45 dBZ
40 dBZ
35 dBZ
30 dBZ
25 dBZ
20 dBZ
15 dBZ
10 dBZ
5 dBZ
-1 K
-2 K
-3 K
-4 K
-5 K
-6 K
-7 K
-8 K
-9 K
950 m²/s²
900 m²/s²
850 m²/s²
800 m²/s²
750 m²/s²
700 m²/s²
650 m²/s²
600 m²/s²
550 m²/s²
500 m²/s²
450 m²/s²
400 m²/s²
350 m²/s²
300 m²/s²
250 m²/s²
200 m²/s²
150 m²/s²
100 m²/s²
46 m/s
44 m/s
42 m/s
40 m/s
38 m/s
36 m/s
34 m/s
32 m/s
30 m/s
28 m/s
26 m/s
24 m/s
22 m/s
20 m/s
16 m/s
12 m/s
8 m/s
4 m/s
30 m/s
28 m/s
26 m/s
24 m/s
22 m/s
20 m/s
18 m/s
16 m/s
14 m/s
12 m/s
10 m/s
8 m/s
6 m/s
4 m/s
2 m/s
3.0
2.8
2.6
2.4
2.2
2.0
1.8
1.6
1.4
1.2
1.0
0.8
0.6
0.4
0.2
15
14
13
12
11
10
9
8
7
6
5
4
3
2
1
90%
80%
70%
60%
50%
40%
30%
20%
10%
42
40
38
36
34
32
30
28
26
24
22
20
18
16
14
12
90+ cm
80-90 cm
70-80 cm
60-70 cm
50-60 cm
40-50 cm
30-40 cm
20-30 cm
10-20 cm
1-10 cm
Sneeuwval